• In Belarus
  • List of Countries
  • For 7 days
  • Water Temperature
  • Satellite Maps
  • Weather Map
  • Weather Widgets
  • user-avatar
    Login

    Hourly Weather Carvoeiro

    Today, 18 December, Monday

    Time Temperature Precipitation Wind Pressure Humidity
    00:00 +3°C° 0 mm 6 mps 769 mmHg 64%
    01:00 +3°C° 0 mm 6 mps 769 mmHg 65%
    02:00 +2°C° 0 mm 6 mps 769 mmHg 66%
    03:00 +2°C° 0 mm 5 mps 769 mmHg 67%
    04:00 +2°C° 0 mm 5 mps 769 mmHg 67%
    05:00 +2°C° 0 mm 5 mps 769 mmHg 68%
    06:00 +3°C° 0 mm 5 mps 769 mmHg 66%
    07:00 +3°C° 0 mm 5 mps 769 mmHg 64%
    08:00 +5°C° 0 mm 5 mps 769 mmHg 62%
    09:00 +7°C° 0 mm 5 mps 769 mmHg 55%
    10:00 +9°C° 0 mm 5 mps 769 mmHg 48%
    11:00 +13°C° 0 mm 5 mps 769 mmHg 41%
    12:00 +13°C° 0 mm 4 mps 768 mmHg 41%
    13:00 +14°C° 0 mm 4 mps 768 mmHg 41%
    14:00 +15°C° 0 mm 4 mps 768 mmHg 41%
    15:00 +13°C° 0 mm 4 mps 768 mmHg 49%
    16:00 +11°C° 0 mm 4 mps 768 mmHg 57%
    17:00 +8°C° 0 mm 4 mps 768 mmHg 64%
    18:00 +7°C° 0 mm 4 mps 768 mmHg 64%
    19:00 +7°C° 0 mm 5 mps 768 mmHg 65%
    20:00 +6°C° 0 mm 5 mps 768 mmHg 65%
    21:00 +6°C° 0 mm 5 mps 768 mmHg 64%
    22:00 +6°C° 0 mm 5 mps 767 mmHg 64%
    23:00 +6°C° 0 mm 5 mps 767 mmHg 64%

    Tomorrow, 19 December, Tuesday

    Time Temperature Precipitation Wind Pressure Humidity
    00:00 +5°C° 0 mm 4 mps 767 mmHg 64%
    01:00 +5°C° 0 mm 4 mps 767 mmHg 64%
    02:00 +5°C° 0 mm 4 mps 766 mmHg 64%
    03:00 +5°C° 0 mm 4 mps 766 mmHg 63%
    04:00 +5°C° 0 mm 4 mps 766 mmHg 62%
    05:00 +6°C° 0 mm 4 mps 766 mmHg 61%
    06:00 +6°C° 0 mm 4 mps 766 mmHg 61%
    07:00 +7°C° 0 mm 4 mps 766 mmHg 61%
    08:00 +8°C° 0 mm 4 mps 767 mmHg 61%
    09:00 +11°C° 0 mm 4 mps 767 mmHg 58%
    10:00 +14°C° 0 mm 4 mps 767 mmHg 56%
    11:00 +17°C° 0 mm 3 mps 767 mmHg 53%
    12:00 +17°C° 0 mm 3 mps 766 mmHg 53%
    13:00 +18°C° 0 mm 3 mps 766 mmHg 52%
    14:00 +19°C° 0 mm 3 mps 765 mmHg 52%
    15:00 +17°C° 0 mm 3 mps 766 mmHg 60%
    16:00 +14°C° 0 mm 3 mps 766 mmHg 69%
    17:00 +12°C° 0 mm 3 mps 766 mmHg 77%
    18:00 +11°C° 0 mm 3 mps 766 mmHg 80%
    19:00 +11°C° 0 mm 3 mps 767 mmHg 82%
    20:00 +10°C° 0 mm 4 mps 767 mmHg 85%
    21:00 +10°C° 0 mm 4 mps 767 mmHg 82%
    22:00 +8°C° 0 mm 5 mps 767 mmHg 80%
    23:00 +8°C° 0 mm 5 mps 767 mmHg 77%

    Day after tomorrow, 20 December, Wednesday

    Time Temperature Precipitation Wind Pressure Humidity
    00:00 +7°C° 0 mm 5 mps 767 mmHg 73%
    01:00 +7°C° 0 mm 5 mps 767 mmHg 70%
    02:00 +6°C° 0 mm 5 mps 767 mmHg 66%
    03:00 +6°C° 0 mm 5 mps 767 mmHg 69%
    04:00 +6°C° 0 mm 5 mps 767 mmHg 72%
    05:00 +4°C° 0 mm 6 mps 767 mmHg 75%
    06:00 +5°C° 0 mm 6 mps 768 mmHg 74%
    07:00 +7°C° 0 mm 5 mps 769 mmHg 73%
    08:00 +8°C° 0 mm 5 mps 769 mmHg 73%
    09:00 +10°C° 0 mm 5 mps 769 mmHg 66%
    10:00 +13°C° 0 mm 5 mps 769 mmHg 59%
    11:00 +15°C° 0 mm 5 mps 770 mmHg 52%
    12:00 +15°C° 0 mm 4 mps 769 mmHg 50%
    13:00 +17°C° 0 mm 4 mps 769 mmHg 49%
    14:00 +17°C° 0 mm 4 mps 769 mmHg 47%
    15:00 +14°C° 0 mm 4 mps 769 mmHg 55%
    16:00 +12°C° 0 mm 3 mps 769 mmHg 63%
    17:00 +10°C° 0 mm 3 mps 769 mmHg 70%
    18:00 +10°C° 0 mm 3 mps 770 mmHg 73%
    19:00 +9°C° 0 mm 3 mps 770 mmHg 75%
    20:00 +8°C° 0 mm 3 mps 770 mmHg 77%
    21:00 +8°C° 0 mm 3 mps 770 mmHg 76%
    22:00 +7°C° 0 mm 3 mps 770 mmHg 75%
    23:00 +7°C° 0 mm 3 mps 770 mmHg 73%

    21 December, Thursday

    Time Temperature Precipitation Wind Pressure Humidity
    00:00 +7°C° 0 mm 3 mps 770 mmHg 72%
    01:00 +5°C° 0 mm 3 mps 770 mmHg 70%
    02:00 +5°C° 0 mm 3 mps 770 mmHg 68%
    03:00 +5°C° 0 mm 3 mps 770 mmHg 67%
    04:00 +5°C° 0 mm 3 mps 770 mmHg 67%
    05:00 +4°C° 0 mm 3 mps 770 mmHg 66%
    06:00 +5°C° 0 mm 3 mps 770 mmHg 64%
    07:00 +7°C° 0 mm 3 mps 771 mmHg 62%
    08:00 +8°C° 0 mm 3 mps 771 mmHg 60%
    09:00 +10°C° 0 mm 2 mps 771 mmHg 53%
    10:00 +14°C° 0 mm 2 mps 772 mmHg 47%
    11:00 +17°C° 0 mm 2 mps 772 mmHg 40%
    12:00 +17°C° 0 mm 2 mps 771 mmHg 39%
    13:00 +17°C° 0 mm 2 mps 771 mmHg 38%
    14:00 +18°C° 0 mm 2 mps 771 mmHg 37%
    15:00 +16°C° 0 mm 2 mps 771 mmHg 44%
    16:00 +13°C° 0 mm 2 mps 771 mmHg 51%
    17:00 +10°C° 0 mm 2 mps 772 mmHg 57%
    18:00 +10°C° 0 mm 2 mps 772 mmHg 58%
    19:00 +9°C° 0 mm 2 mps 773 mmHg 60%
    20:00 +9°C° 0 mm 2 mps 773 mmHg 61%
    21:00 +8°C° 0 mm 2 mps 773 mmHg 61%
    22:00 +8°C° 0 mm 3 mps 773 mmHg 61%
    23:00 +8°C° 0 mm 3 mps 773 mmHg 60%

    22 December, Friday

    Time Temperature Precipitation Wind Pressure Humidity
    00:00 +7°C° 0 mm 3 mps 773 mmHg 60%
    01:00 +7°C° 0 mm 3 mps 773 mmHg 59%
    02:00 +7°C° 0 mm 3 mps 772 mmHg 58%
    03:00 +7°C° 0 mm 3 mps 772 mmHg 58%
    04:00 +7°C° 0 mm 3 mps 772 mmHg 58%
    05:00 +5°C° 0 mm 3 mps 772 mmHg 57%
    06:00 +7°C° 0 mm 3 mps 773 mmHg 56%
    07:00 +8°C° 0 mm 3 mps 773 mmHg 55%
    08:00 +9°C° 0 mm 3 mps 773 mmHg 54%
    09:00 +12°C° 0 mm 2 mps 773 mmHg 48%
    10:00 +15°C° 0 mm 2 mps 773 mmHg 42%
    11:00 +17°C° 0 mm 2 mps 773 mmHg 35%
    12:00 +18°C° 0 mm 2 mps 773 mmHg 35%
    13:00 +18°C° 0 mm 2 mps 772 mmHg 35%
    14:00 +18°C° 0 mm 2 mps 772 mmHg 34%
    15:00 +16°C° 0 mm 2 mps 772 mmHg 42%
    16:00 +14°C° 0 mm 2 mps 772 mmHg 50%
    17:00 +10°C° 0 mm 2 mps 772 mmHg 57%
    18:00 +10°C° 0 mm 3 mps 772 mmHg 59%
    19:00 +9°C° 0 mm 3 mps 772 mmHg 60%
    20:00 +8°C° 0 mm 3 mps 772 mmHg 62%
    21:00 +8°C° 0 mm 3 mps 772 mmHg 64%
    22:00 +8°C° 0 mm 3 mps 771 mmHg 66%
    23:00 +8°C° 0 mm 3 mps 771 mmHg 68%

    23 December, Saturday

    Time Temperature Precipitation Wind Pressure Humidity
    00:00 +8°C° 0 mm 3 mps 771 mmHg 70%
    01:00 +7°C° 0 mm 3 mps 770 mmHg 73%
    02:00 +7°C° 0 mm 3 mps 770 mmHg 75%
    03:00 +7°C° 0 mm 2 mps 770 mmHg 75%
    04:00 +7°C° 0 mm 2 mps 770 mmHg 76%
    05:00 +7°C° 0 mm 2 mps 769 mmHg 76%
    06:00 +7°C° 0 mm 2 mps 770 mmHg 74%
    07:00 +8°C° 0 mm 2 mps 770 mmHg 72%
    08:00 +9°C° 0 mm 2 mps 770 mmHg 69%
    09:00 +12°C° 0 mm 2 mps 769 mmHg 62%
    10:00 +15°C° 0 mm 1 mps 769 mmHg 55%
    11:00 +18°C° 0 mm 1 mps 769 mmHg 48%
    12:00 +18°C° 0 mm 1 mps 768 mmHg 47%
    13:00 +18°C° 0 mm 2 mps 768 mmHg 46%
    14:00 +18°C° 0 mm 2 mps 767 mmHg 45%
    15:00 +16°C° 0 mm 2 mps 767 mmHg 54%
    16:00 +14°C° 0 mm 2 mps 767 mmHg 62%
    17:00 +10°C° 0 mm 2 mps 767 mmHg 70%
    18:00 +10°C° 0 mm 2 mps 768 mmHg 73%
    19:00 +10°C° 0 mm 1 mps 768 mmHg 75%
    20:00 +10°C° 0 mm 1 mps 768 mmHg 77%
    21:00 +10°C° 0 mm 1 mps 767 mmHg 78%
    22:00 +9°C° 0 mm 1 mps 767 mmHg 79%
    23:00 +9°C° 0 mm 1 mps 767 mmHg 80%
    Show more

    XHprof extension not loaded